Weather History for New Castle, PA

Change the Weather History Date:

Thursday, April 4, 2013

  Actual Average Record
Temperature  
Mean Temperature 34 °F -  
Max Temperature 54 °F 55 °F 78 °F (1963)
Min Temperature 15 °F 33 °F 14 °F (1954)
Degree Days  
Heating Degree Days 30    
Moisture  
Dew Point 11 °F    
Average Humidity 45    
Maximum Humidity 88    
Minimum Humidity 14    
Precipitation  
Precipitation 0.00 in - - ()
Sea Level Pressure  
Sea Level Pressure 30.26 in    
Wind  
Wind Speed 1 mph (South)    
Max Wind Speed 8 mph    
Max Gust Speed -    
Visibility 10 miles    
Events      
Averages and records for this station are not official NWS values.
T = Trace of Precipitation, MM = Missing Value Source: NWS Daily Summary

Daily Weather History Graph

Daily Weather History Graph

Search for Another Location

Airport:

Trip Planner

Search our weather history database for the weather conditions in past years. The results will help you decide how hot, cold, wet, or windy it might be!

Date:

Astronomy

Apr. 04, 2013 Rise Set
Actual Time 6:59 AM EDT 7:50 PM EDT
Civil Twilight 6:31 AM EDT 8:18 PM EDT
Nautical Twilight 5:58 AM EDT 8:51 PM EDT
Astronomical Twilight 5:24 AM EDT 9:25 PM EDT
Moon 3:28 AM EDT (4/4) 2:04 PM EDT (4/4)
Length of Visible Light 13h 46m
Length of Day
12h 50m
Waning Crescent, 34% of the Moon is Illuminated
Apr 4
Waning Crescent
Apr 10
New
Apr 18
First Quarter
Apr 25
Full
May 2
Last Quarter

Hourly Weather History & Observations

Time (EDT) Temp. Windchill Dew Point Humidity Pressure Visibility Wind Dir Wind Speed Gust Speed Precip Events Conditions
12:56 AM 21.0 °F - 11.1 °F 66% 30.47 in 10.0 mi Calm Calm - N/A   Clear
1:56 AM 20.1 °F - 11.1 °F 68% 30.48 in 10.0 mi Calm Calm - N/A   Clear
2:56 AM 20.1 °F - 11.1 °F 68% 30.46 in 10.0 mi Calm Calm - N/A   Clear
3:56 AM 18.1 °F - 11.1 °F 74% 30.45 in 10.0 mi Calm Calm - N/A   Clear
4:56 AM 16.2 °F - 11.1 °F 81% 30.45 in 10.0 mi Calm Calm - N/A   Clear
5:56 AM 15.1 °F - 12.0 °F 88% 30.45 in 10.0 mi Calm Calm - N/A   Clear
6:56 AM 15.1 °F - 11.1 °F 84% 30.44 in 10.0 mi Calm Calm - N/A   Clear
7:56 AM 18.1 °F - 15.1 °F 88% 30.42 in 10.0 mi Calm Calm - N/A   Clear
8:56 AM 24.1 °F - 18.1 °F 78% 30.40 in 10.0 mi Calm Calm - N/A   Clear
9:56 AM 32.0 °F 28.7 °F 15.1 °F 50% 30.36 in 10.0 mi Variable 3.5 mph - N/A   Clear
10:56 AM 35.6 °F - 15.8 °F 44% 30.26 in 10.0 mi Calm Calm - N/A   Clear
11:56 AM 39.9 °F 35.8 °F 10.0 °F 29% 30.30 in 10.0 mi Variable 5.8 mph - N/A   Clear
12:56 PM 43.9 °F - 6.1 °F 21% 30.25 in 10.0 mi Calm Calm - N/A   Partly Cloudy
1:56 PM 46.9 °F - 6.1 °F 19% 30.22 in 10.0 mi Variable 3.5 mph - N/A   Partly Cloudy
2:56 PM 52.0 °F - 7.2 °F 16% 30.18 in 10.0 mi SSW 8.1 mph - N/A   Clear
3:56 PM 52.9 °F - 5.0 °F 14% 30.14 in 10.0 mi Variable 6.9 mph - N/A   Partly Cloudy
4:56 PM 54.0 °F - 5.0 °F 14% 30.11 in 10.0 mi Variable 4.6 mph - N/A   Partly Cloudy
5:56 PM 54.0 °F - 6.1 °F 15% 30.09 in 10.0 mi SSE 6.9 mph - N/A   Clear
6:56 PM 52.0 °F - 8.1 °F 17% 30.09 in 10.0 mi Variable 4.6 mph - N/A   Clear
7:56 PM 48.2 °F - 10.4 °F 22% 30.00 in 10.0 mi South 4.6 mph - N/A   Clear
8:56 PM 43.9 °F 42.3 °F 11.1 °F 26% 30.07 in 10.0 mi Variable 3.5 mph - N/A   Clear
9:56 PM 43.0 °F - 10.0 °F 26% 30.07 in 10.0 mi Calm Calm - N/A   Clear
10:56 PM 39.2 °F 37.0 °F 12.2 °F 33% 29.98 in 10.0 mi South 3.5 mph - N/A   Clear
11:56 PM 34.9 °F - 12.0 °F 39% 30.04 in 10.0 mi Calm Calm - N/A   Clear